sat.trackr.live / text

‹ back to catalog

STARLINK-3528

NORAD 51714 · 2022-016A

PAYLOAD ACTIVE UNKNOWN

§ Identity

Operator
Country
US
Launch date
2022-02-21
Launch site
AFETR
Launch vehicle
Mass (kg)
RCS (m²)

Purposes: comms

External: N2YO · Heavens-Above · Gunter

§ Orbital elements

Epoch: 2026-09-20T02:41:36.652128Z

Period
93.79 min
Inclination
53.1586°
Eccentricity
0.0001040
Mean motion
15.35394316 rev/d
Perigee alt
459.0 km
Apogee alt
460.5 km
Semi-major
6,837.9 km
B*
-9.4738e-6
RAAN
165.3333°
Arg perigee
90.4918°
Mean anomaly
269.6204°
Rev number
25,292

§ Raw data

STARLINK-35281 51714U 22016A   26263.11222977 -.00000711  00000+0 -94738-5 0  99952 51714  53.1586 165.3333 0001040  90.4918 269.6204 15.35394316252927

JSON: /api/v1/satellites/51714 · /tle

For live sub-satellite position, see the globe view (requires WebGL).

§ Visibility from observer

Set your observer location to see the next 7 days of passes ≥ 10°. The values pass through the URL so the page stays shareable.

No JS? Fill the form by hand. The geolocation button needs JavaScript.